Regional Weather Roundup
Issued by NWS

Home | Current Version | Previous Version | Graphics & Text | Print | Product List | Glossary On
Versions: 1 2 3 4 5 6 7 8 9 10 11 12 13 14 15 16 17 18 19 20 21 22 23 24 25 26 27 28 29 30 31 32 33 34 35 36 37 38 39 40 41 42 43 44 45 46 47 48 49 50
000
ASUS43 KLSX 222107
RWRMO

WEATHER SUMMARY FOR MISSOURI
NATIONAL WEATHER SERVICE SPRINGFIELD MO
300 PM CST MON JAN 22 2018

NOTE: "FAIR" INDICATES FEW OR NO CLOUDS BELOW 12,000 FEET WITH NO
       SIGNIFICANT WEATHER AND/OR OBSTRUCTIONS TO VISIBILITY.
       CURRENT SKY AND/OR WEATHER CONDITIONS ARE NOT AVAILABLE FOR
       CHILLICOTHE AND FARMINGTON.

MOZ001>031-035>038-043-044-053-054-222200-
...NORTHERN AND WESTERN MISSOURI...

CITY           SKY/WX    TMP DP  RH WIND       PRES   REMARKS
KANSAS CTY INT FLURRIES  34  32  92 W16G23    29.44R WCI  24
KANSAS C DTWN  CLOUDY    37  32  82 W15G23    29.46R WCI  28
LEE`S SUMMIT   CLOUDY    36  34  92 W20G26    29.46R WCI  25
ST JOSEPH      LGT SNOW  34  34 100 W12       29.42R FOG     WCI  25
CHILLICOTHE      N/A     37  34  89 S13       29.42S WCI  29
KIRKSVILLE     LGT RAIN  38  34  85 SW13      29.44R WCI  30

$$
MOZ066>068-077>081-088>096-101>105-222200-
...SOUTHWEST MISSOURI...

CITY           SKY/WX    TMP DP  RH WIND       PRES   REMARKS
SPRINGFIELD    CLOUDY    41  30  65 SW26G43   29.59R
JOPLIN         CLOUDY    40  31  70 W23G40    29.65R WCI  30
BRANSON        CLOUDY    41  27  56 SW16G29   29.67R

$$
MOZ032>034-039>042-045>050-055>058-069>072-222200-
...CENTRAL MISSOURI...

CITY           SKY/WX    TMP DP  RH WIND       PRES   REMARKS
COLUMBIA       CLOUDY    41  31  67 S20G29    29.50S
JEFFERSON CITY CLOUDY    43  31  62 S12G22    29.53S
ROLLA          CLOUDY    41  28  60 SW22G32   29.56R
SEDALIA        LGT RAIN  40  36  86 SW23G35   29.48S WCI  30
WHITEMAN AFB   LGT RAIN  38  34  87 SW16G26   29.42R WCI  29
WARRENSBURG    DRIZZLE   37  34  87 SW15G24   29.46R WCI  28
OSAGE BEACH    LGT RAIN  42  30  62 SW20G31   29.54F

$$
MOZ051-052-059>065-222200-
...EAST CENTRAL MISSOURI...

CITY           SKY/WX    TMP DP  RH WIND       PRES   REMARKS
ST LOUIS INTL  MOSUNNY   55  27  34 W25G33    29.48R
SPIRIT OF STL  PTSUNNY   51  31  46 W24G35    29.51R
ST CHARLES     MOSUNNY   53  32  44 W22G39    29.49R

$$
MOZ072>076-082>087-097>100-106>115-222200-
...SOUTH CENTRAL AND SOUTHEAST MISSOURI...

CITY           SKY/WX    TMP DP  RH WIND       PRES   REMARKS
CAPE GIRARDEAU FAIR      57  41  55 SW21G36   29.57S
FARMINGTON     PTSUNNY   55  27  34 SW18G36   29.53R
POPLAR BLUFF   FAIR      56  31  38 SW24G43   29.61R
WEST PLAINS    CLOUDY    45  27  49 SW20G31   29.64R

$$


USA.gov is the U.S. government's official web portal to all federal, state and local government web resources and services.